�������l�o���
Date,Time,MP-1(��Sv/h),MP-2(��Sv/h),MP-3(��Sv/h),MP-4(��Sv/h),MP-5(��Sv/h),MP-6(��Sv/h),MP-7(��Sv/h),MP-8(��Sv/h),����,����(m/s),���J
2017/06/24,00:00,0.994,1.582,1.046,1.875,1.280,0.531,0.970,0.895,��,3.5,��
2017/06/24,00:10,0.994,1.581,1.045,1.872,1.279,0.532,0.969,0.894,��,4.7,��
2017/06/24,00:20,0.995,1.581,1.047,1.875,1.279,0.532,0.971,0.896,��,3.3,��
2017/06/24,00:30,0.992,1.580,1.047,1.874,1.278,0.533,0.968,0.895,��쐼,2.3,��
2017/06/24,00:40,0.995,1.582,1.046,1.872,1.279,0.532,0.969,0.896,��,3.0,��
2017/06/24,00:50,0.994,1.582,1.045,1.874,1.279,0.531,0.968,0.896,��쐼,3.6,��
2017/06/24,01:00,0.996,1.582,1.044,1.875,1.279,0.532,0.971,0.894,��,2.3,��
2017/06/24,01:10,0.995,1.583,1.046,1.875,1.277,0.531,0.968,0.896,�쐼,1.5,��
2017/06/24,01:20,0.995,1.579,1.045,1.872,1.278,0.532,0.971,0.894,���쐼,1.5,��
2017/06/24,01:30,0.998,1.582,1.045,1.876,1.279,0.532,0.969,0.894,�k��,0.9,��
2017/06/24,01:40,0.997,1.581,1.046,1.875,1.278,0.533,0.970,0.896,�k�k��,1.5,��
2017/06/24,01:50,0.994,1.582,1.046,1.874,1.279,0.533,0.969,0.896,�k�k��,1.4,��
2017/06/24,02:00,0.996,1.580,1.044,1.870,1.279,0.532,0.969,0.894,�k�k��,2.5,��
2017/06/24,02:10,0.994,1.581,1.046,1.874,1.278,0.532,0.970,0.894,�k,1.7,��
2017/06/24,02:20,0.996,1.578,1.044,1.872,1.281,0.531,0.969,0.893,�k�k��,1.4,��
2017/06/24,02:30,0.997,1.577,1.044,1.873,1.277,0.533,0.969,0.895,�k,1.5,��
2017/06/24,02:40,0.994,1.580,1.044,1.874,1.278,0.531,0.969,0.894,�k��,0.6,��
2017/06/24,02:50,0.994,1.581,1.045,1.875,1.279,0.532,0.969,0.895,�k�k��,0.8,��
2017/06/24,03:00,0.994,1.581,1.045,1.871,1.279,0.534,0.969,0.896,�k��,1.1,��
2017/06/24,03:10,0.995,1.577,1.046,1.875,1.279,0.530,0.969,0.894,�k,2.3,��
2017/06/24,03:20,0.995,1.582,1.044,1.873,1.279,0.532,0.968,0.893,�k�k��,2.5,��
2017/06/24,03:30,0.994,1.579,1.045,1.874,1.277,0.531,0.969,0.894,�k�k��,2.2,��
2017/06/24,03:40,0.994,1.581,1.044,1.873,1.279,0.531,0.969,0.894,�k,2.3,��
2017/06/24,03:50,0.992,1.578,1.045,1.874,1.280,0.533,0.969,0.896,�k,2.9,��
2017/06/24,04:00,0.992,1.578,1.045,1.873,1.278,0.530,0.969,0.897,�k,3.8,��
2017/06/24,04:10,0.994,1.578,1.045,1.873,1.279,0.531,0.968,0.893,�k�k��,3.2,��
2017/06/24,04:20,0.993,1.581,1.044,1.870,1.279,0.531,0.968,0.894,�k��,2.3,��
2017/06/24,04:30,0.991,1.580,1.046,1.870,1.279,0.531,0.968,0.895,�k��,0.9,��
2017/06/24,04:40,0.993,1.579,1.042,1.869,1.277,0.530,0.967,0.893,�k��,1.4,��
2017/06/24,04:50,0.993,1.577,1.042,1.872,1.278,0.531,0.967,0.894,�k�k��,0.9,��
2017/06/24,05:00,0.992,1.581,1.043,1.874,1.278,0.530,0.968,0.895,�k�k��,1.4,��
2017/06/24,05:10,0.993,1.579,1.045,1.873,1.276,0.530,0.967,0.895,�k,1.4,��
2017/06/24,05:20,0.991,1.579,1.044,1.874,1.278,0.530,0.968,0.895,�k�k��,1.0,��
2017/06/24,05:30,0.993,1.579,1.047,1.873,1.279,0.530,0.968,0.894,�k�k��,0.6,��
2017/06/24,05:40,0.992,1.581,1.043,1.874,1.278,0.530,0.969,0.894,���k��,0.6,��
2017/06/24,05:50,0.993,1.581,1.047,1.879,1.278,0.530,0.969,0.895,�k�k��,1.2,��
2017/06/24,06:00,0.992,1.579,1.045,1.877,1.277,0.529,0.968,0.895,�k�k��,1.0,��
2017/06/24,06:10,0.995,1.579,1.044,1.874,1.279,0.531,0.968,0.894,�k,1.4,��
2017/06/24,06:20,0.995,1.581,1.045,1.875,1.279,0.532,0.965,0.895,-,CALM,��
2017/06/24,06:30,0.994,1.585,1.046,1.874,1.279,0.531,0.968,0.897,-,CALM,��
2017/06/24,06:40,0.995,1.583,1.046,1.871,1.278,0.530,0.969,0.894,-,CALM,��
2017/06/24,06:50,0.994,1.582,1.045,1.875,1.279,0.530,0.968,0.894,���k��,0.6,��
2017/06/24,07:00,0.994,1.584,1.045,1.877,1.280,0.529,0.968,0.895,��,1.2,��
2017/06/24,07:10,0.993,1.583,1.044,1.874,1.279,0.529,0.966,0.893,��쓌,1.1,��
2017/06/24,07:20,0.993,1.584,1.045,1.876,1.278,0.527,0.967,0.894,�쓌,0.9,��
2017/06/24,07:30,0.992,1.582,1.046,1.875,1.278,0.527,0.967,0.895,�쓌,0.6,��
2017/06/24,07:40,0.992,1.580,1.046,1.878,1.280,0.528,0.967,0.894,���쓌,1.4,��
2017/06/24,07:50,0.993,1.579,1.045,1.877,1.275,0.528,0.966,0.893,�쓌,2.2,��
2017/06/24,08:00,0.992,1.579,1.045,1.876,1.278,0.528,0.967,0.894,�쓌,1.4,��
2017/06/24,08:10,0.991,1.579,1.045,1.877,1.277,0.527,0.966,0.894,�쓌,2.0,��
2017/06/24,08:20,0.989,1.578,1.044,1.876,1.277,0.529,0.966,0.894,��쓌,2.5,��
2017/06/24,08:30,0.989,1.580,1.045,1.875,1.278,0.529,0.965,0.892,��쓌,3.0,��
2017/06/24,08:40,0.991,1.578,1.043,1.876,1.276,0.529,0.966,0.891,��쓌,3.1,��
2017/06/24,08:50,0.991,1.579,1.044,1.876,1.279,0.530,0.966,0.892,��쓌,2.6,��
2017/06/24,09:00,0.991,1.578,1.044,1.877,1.277,0.530,0.968,0.892,��쓌,3.4,��
2017/06/24,09:10,0.992,1.581,1.041,1.876,1.278,0.530,0.967,0.892,��,3.6,��
2017/06/24,09:20,0.995,1.582,1.044,1.876,1.280,0.530,0.967,0.893,��쓌,3.7,��
2017/06/24,09:30,0.994,1.583,1.045,1.876,1.279,0.529,0.971,0.892,��쓌,3.9,��
2017/06/24,09:40,0.995,1.578,1.042,1.878,1.282,0.529,0.968,0.893,��쓌,5.5,��
2017/06/24,09:50,0.995,1.581,1.045,1.874,1.279,0.529,0.969,0.893,��,5.7,��
2017/06/24,10:00,0.995,1.583,1.046,1.877,1.283,0.531,0.968,0.893,��,6.5,��
2017/06/24,10:10,0.995,1.584,1.044,1.877,1.281,0.530,0.970,0.893,��,6.7,��
2017/06/24,10:20,0.998,1.578,1.046,1.877,1.280,0.530,0.970,0.894,��,4.5,��
2017/06/24,10:30,0.997,1.582,1.044,1.880,1.282,0.531,0.969,0.894,��쓌,6.8,��
2017/06/24,10:40,0.997,1.584,1.050,1.876,1.283,0.531,0.970,0.893,��,6.6,��
2017/06/24,10:50,0.996,1.585,1.044,1.878,1.281,0.532,0.970,0.894,��,7.3,��
2017/06/24,11:00,0.998,1.585,1.047,1.878,1.283,0.531,0.969,0.893,��,7.0,��
2017/06/24,11:10,0.999,1.585,1.048,1.876,1.282,0.533,0.970,0.894,��,8.7,��
2017/06/24,11:20,0.999,1.585,1.045,1.874,1.282,0.531,0.969,0.894,��쓌,10.4,��
2017/06/24,11:30,0.998,1.585,1.047,1.877,1.283,0.531,0.967,0.892,��쓌,9.3,��
2017/06/24,11:40,0.998,1.586,1.049,1.876,1.285,0.531,0.971,0.894,��,8.6,��
2017/06/24,11:50,0.998,1.587,1.047,1.877,1.283,0.531,0.970,0.894,��,9.7,��
2017/06/24,12:00,0.999,1.589,1.050,1.875,1.288,0.533,0.969,0.893,��,10.8,��
2017/06/24,12:10,0.998,1.590,1.046,1.876,1.285,0.533,0.971,0.894,��,12.4,��
2017/06/24,12:20,0.998,1.588,1.048,1.877,1.286,0.532,0.972,0.894,��,11.1,��
2017/06/24,12:30,0.998,1.589,1.047,1.878,1.285,0.531,0.971,0.894,��쓌,13.0,��
2017/06/24,12:40,1.000,1.590,1.051,1.875,1.284,0.532,0.972,0.895,��,14.1,��
2017/06/24,12:50,1.001,1.587,1.049,1.878,1.286,0.531,0.969,0.895,��,12.7,��
2017/06/24,13:00,1.001,1.589,1.050,1.876,1.284,0.532,0.970,0.895,��,12.8,��
2017/06/24,13:10,1.000,1.592,1.047,1.876,1.283,0.532,0.974,0.896,��,11.3,��
2017/06/24,13:20,0.999,1.586,1.048,1.879,1.285,0.531,0.970,0.892,��쓌,14.3,��
2017/06/24,13:30,1.000,1.588,1.046,1.880,1.284,0.532,0.969,0.894,��쓌,12.1,��
2017/06/24,13:40,0.999,1.588,1.049,1.877,1.287,0.532,0.970,0.893,��,11.0,��
2017/06/24,13:50,1.000,1.587,1.048,1.880,1.286,0.531,0.971,0.894,��,13.2,��
2017/06/24,14:00,1.000,1.590,1.050,1.881,1.287,0.532,0.972,0.895,��,11.1,��
2017/06/24,14:10,0.998,1.590,1.049,1.879,1.287,0.532,0.970,0.896,��,12.1,��
2017/06/24,14:20,1.002,1.593,1.050,1.881,1.287,0.533,0.972,0.894,��,12.4,��
2017/06/24,14:30,1.000,1.592,1.049,1.881,1.289,0.529,0.972,0.895,��쓌,13.6,��
2017/06/24,14:40,1.003,1.592,1.050,1.880,1.289,0.532,0.972,0.894,��,12.7,��
2017/06/24,14:50,1.001,1.591,1.050,1.883,1.288,0.531,0.972,0.895,��쓌,12.4,��
2017/06/24,15:00,1.002,1.592,1.052,1.882,1.287,0.533,0.972,0.896,��,11.3,��
2017/06/24,15:10,1.001,1.595,1.049,1.882,1.291,0.532,0.974,0.895,��,9.6,��
2017/06/24,15:20,1.002,1.595,1.050,1.884,1.289,0.532,0.972,0.896,��쓌,9.7,��
2017/06/24,15:30,1.000,1.594,1.051,1.883,1.291,0.534,0.972,0.897,��,12.7,��
2017/06/24,15:40,1.001,1.593,1.051,1.883,1.290,0.533,0.973,0.896,��,11.6,��
2017/06/24,15:50,1.001,1.594,1.051,1.886,1.289,0.532,0.974,0.896,��,12.2,��
2017/06/24,16:00,1.000,1.593,1.052,1.884,1.290,0.532,0.972,0.896,��,12.5,��
2017/06/24,16:10,1.001,1.594,1.052,1.887,1.289,0.530,0.971,0.894,��쓌,14.2,��
2017/06/24,16:20,1.001,1.594,1.053,1.880,1.289,0.532,0.972,0.895,��,15.2,��
2017/06/24,16:30,1.001,1.595,1.051,1.883,1.290,0.532,0.973,0.894,��,13.5,��
2017/06/24,16:40,1.001,1.594,1.050,1.883,1.289,0.531,0.974,0.896,��,14.1,��
2017/06/24,16:50,1.003,1.594,1.051,1.881,1.287,0.531,0.974,0.898,��쓌,13.0,��
2017/06/24,17:00,1.002,1.595,1.052,1.885,1.290,0.533,0.971,0.895,��쓌,12.7,��
2017/06/24,17:10,1.002,1.591,1.054,1.886,1.289,0.531,0.971,0.894,��쓌,14.4,��
2017/06/24,17:20,1.002,1.594,1.053,1.885,1.289,0.531,0.971,0.893,��,13.0,��
2017/06/24,17:30,1.002,1.593,1.051,1.887,1.290,0.531,0.971,0.895,��,11.6,��
2017/06/24,17:40,1.001,1.595,1.050,1.882,1.292,0.533,0.973,0.897,��,11.3,��
2017/06/24,17:50,1.002,1.595,1.052,1.882,1.290,0.530,0.972,0.897,��,11.1,��
2017/06/24,18:00,1.000,1.593,1.052,1.882,1.291,0.531,0.971,0.897,��,10.5,��
2017/06/24,18:10,1.003,1.594,1.051,1.887,1.290,0.530,0.973,0.895,��,11.3,��
2017/06/24,18:20,1.000,1.595,1.051,1.886,1.289,0.532,0.971,0.897,��,10.5,��
2017/06/24,18:30,1.004,1.595,1.053,1.886,1.290,0.532,0.973,0.898,��,9.6,��
2017/06/24,18:40,1.001,1.596,1.051,1.885,1.288,0.530,0.972,0.898,��,7.9,��
2017/06/24,18:50,1.002,1.595,1.052,1.882,1.291,0.531,0.974,0.899,��,7.2,��
2017/06/24,19:00,1.001,1.594,1.053,1.886,1.291,0.532,0.972,0.898,��,7.1,��
2017/06/24,19:10,0.999,1.594,1.052,1.886,1.292,0.532,0.971,0.896,��,8.0,��
2017/06/24,19:20,1.001,1.593,1.051,1.887,1.290,0.531,0.972,0.898,��,7.6,��
2017/06/24,19:30,1.000,1.598,1.053,1.887,1.290,0.531,0.975,0.898,��,8.3,��
2017/06/24,19:40,1.001,1.596,1.051,1.886,1.290,0.532,0.975,0.898,��,8.0,��
2017/06/24,19:50,1.000,1.593,1.055,1.884,1.292,0.532,0.974,0.901,��,6.7,��
2017/06/24,20:00,1.000,1.595,1.053,1.887,1.291,0.533,0.975,0.898,��,5.6,��
2017/06/24,20:10,0.997,1.595,1.054,1.886,1.291,0.531,0.973,0.898,��,5.9,��
2017/06/24,20:20,0.999,1.593,1.054,1.887,1.290,0.531,0.974,0.898,��,6.7,��
2017/06/24,20:30,1.001,1.591,1.055,1.887,1.295,0.530,0.975,0.900,��,5.9,��
2017/06/24,20:40,1.000,1.593,1.054,1.888,1.293,0.533,0.975,0.898,��,7.3,��
2017/06/24,20:50,1.000,1.593,1.056,1.886,1.292,0.532,0.974,0.899,��,8.0,��
2017/06/24,21:00,1.000,1.597,1.055,1.886,1.291,0.532,0.975,0.899,��,7.5,��
2017/06/24,21:10,1.000,1.595,1.055,1.888,1.292,0.532,0.974,0.898,��,8.0,��
2017/06/24,21:20,0.999,1.596,1.054,1.886,1.290,0.532,0.975,0.898,��,7.1,��
2017/06/24,21:30,0.999,1.595,1.055,1.887,1.294,0.532,0.973,0.898,��,8.1,��
2017/06/24,21:40,0.997,1.593,1.054,1.887,1.293,0.532,0.974,0.897,��,7.1,��
2017/06/24,21:50,1.000,1.599,1.054,1.887,1.292,0.531,0.976,0.898,��,7.4,��
2017/06/24,22:00,1.000,1.597,1.052,1.884,1.293,0.534,0.975,0.899,��,7.6,��
2017/06/24,22:10,1.000,1.599,1.056,1.886,1.294,0.532,0.975,0.899,��,8.2,��
2017/06/24,22:20,1.001,1.597,1.057,1.886,1.290,0.532,0.978,0.900,��,7.7,��
2017/06/24,22:30,1.000,1.599,1.054,1.886,1.293,0.533,0.975,0.897,��,7.6,��
2017/06/24,22:40,0.998,1.597,1.054,1.886,1.292,0.533,0.975,0.897,��,7.6,��
2017/06/24,22:50,0.999,1.599,1.055,1.885,1.292,0.534,0.974,0.898,��,6.9,��
2017/06/24,23:00,0.999,1.596,1.056,1.887,1.291,0.533,0.974,0.900,��,7.2,��
2017/06/24,23:10,0.998,1.595,1.054,1.887,1.294,0.533,0.975,0.899,��,7.8,��
2017/06/24,23:20,1.000,1.597,1.056,1.887,1.292,0.533,0.974,0.900,��,7.1,��
2017/06/24,23:30,0.999,1.599,1.055,1.886,1.293,0.532,0.974,0.896,��,8.2,��
2017/06/24,23:40,1.000,1.596,1.056,1.886,1.291,0.534,0.975,0.898,��,6.7,��
2017/06/24,23:50,1.001,1.595,1.055,1.888,1.290,0.534,0.973,0.898,��,5.4,��
